Home   Weather   Romsey   Past weeks
Flag for United Kingdom

Past Weather in Romsey, England, United Kingdom — Yesterday and Last 2 Weeks

Now
48 °F

Passing clouds.


Feels Like: 47 °F
Forecast: N/A
Wind: 3 mph from North

Location: Southampton / Weather Centre

Current Time: Mar 22, 2019 at 8:34:29 pm

Latest Report: Mar 22, 2019 at 7:50 pm


Visibility: N/A

Pressure: 30.36 "Hg

Humidity: 87%

Dew Point: 45 °F

Location of RomseyLocation

Past Weather in Romsey — Graph

°F

Romsey Temperature Yesterday

Maximum temperature yesterday: 54 °F (at 12:50 pm)
Minimum temperature yesterday: 48 °F (at 5:50 am)
Average temperature yesterday: 51 °F

High & Low Weather Summary for the Past Weeks

 TemperatureHumidityPressure
High55 °F (Mar 9, 11:50 am)100% (Mar 12, 5:50 am)30.57 "Hg (Mar 12, 5:50 am)
Low34 °F (Mar 8, 5:50 am)40% (Mar 17, 3:20 pm)29.45 "Hg (Mar 16, 7:20 pm)
Average48 °F76%30.03 "Hg
* Reported Mar 7 7:20 pm — Mar 22 7:20 pm, Romsey. Weather by CustomWeather, © 2019

Note: Actual official high and low records may vary slightly from our data, if they occured in-between our weather recording intervals... More about our weather records

Advertising

Romsey Weather History for the Previous 24 Hours

Scroll right to see more
 ConditionsComfort  
Time TempWeatherWind HumidityBarometerVisibility
7:20 pm
Fri, Mar 22
48 °FPassing clouds.5 mph87%30.36 "HgN/A
6:50 pm48 °FPassing clouds.5 mph87%30.36 "HgN/A
6:20 pm48 °FScattered showers. Broken clouds.3 mph87%30.36 "HgN/A
5:50 pm48 °FScattered showers. Broken clouds.5 mph87%30.36 "HgN/A
5:20 pm48 °FPartly sunny.6 mph87%30.36 "HgN/A
4:50 pm48 °FPartly sunny.6 mph87%30.33 "HgN/A
4:20 pm48 °FPartly sunny.7 mph87%30.33 "HgN/A
3:50 pm48 °FPartly sunny.7 mph87%30.36 "HgN/A
3:20 pm48 °FBroken clouds.6 mph87%30.36 "HgN/A
2:50 pm48 °FBroken clouds.6 mph87%30.36 "HgN/A
2:20 pm48 °FDrizzle. Broken clouds.8 mph87%30.36 "HgN/A
1:50 pm48 °FPartly sunny.8 mph87%30.36 "HgN/A
1:20 pm50 °FPartly sunny.7 mph76%30.36 "HgN/A
12:50 pm50 °FOvercast.7 mph76%30.36 "HgN/A
11:50 am48 °FMore clouds than sun.5 mph82%30.39 "HgN/A
11:20 am48 °FMore clouds than sun.5 mph82%30.39 "HgN/A
10:50 am48 °FMore clouds than sun.5 mph82%30.39 "HgN/A
10:20 am48 °FMore clouds than sun.5 mph82%30.39 "HgN/A
9:50 am48 °FMore clouds than sun.8 mph82%30.39 "HgN/A
9:20 am48 °FMore clouds than sun.3 mph82%30.39 "HgN/A
8:50 am46 °FMore clouds than sun.6 mph87%30.39 "HgN/A
8:20 am46 °FPartly sunny.6 mph87%30.39 "HgN/A
7:50 am46 °FPartly sunny.5 mph87%30.39 "HgN/A
7:20 am46 °FPartly sunny.5 mph87%30.39 "HgN/A
6:50 am46 °FPartly sunny.3 mph87%30.39 "HgN/A
6:20 am46 °FPartly sunny.8 mph87%30.39 "HgN/A
5:50 am46 °FPassing clouds.7 mph87%30.39 "HgN/A
10:20 pm
Thu, Mar 21
50 °FOvercast.3 mph82%30.45 "HgN/A
9:50 pm50 °FOvercast.1 mph88%30.48 "HgN/A
9:20 pm50 °FPassing clouds.No wind88%30.48 "HgN/A
8:50 pm50 °FPassing clouds.1 mph88%30.48 "HgN/A
8:20 pm50 °FPassing clouds.3 mph88%30.48 "HgN/A
Weather by CustomWeather, © 2019

See weather overview